[[{"header":{"parameterUnit":"m.s-1","parameterCategory":1,"la1":30.2991,"la2":30.254,"lo1":-89.0895,"lo2":-89.0444,"dy":0.0017,"dx":0.0017,"nx":28,"ny":28,"refTime":"2024-07-19T09:00:00:Z","depth":0,"parameterNumber":2,"parameterNumberName":"U-component_of_WINDS"},"data":[0,0,0,0,0,0,0,0,0,0,0,0,0,0,0,0,0,0,0,0,0,0,0,0,0,0,0,0,0,0,0,0,0,0,0,0,0,0,0,0,0,0,0,0,0,0,0,0,0,0,0,0,0,0,0,0,0,0,-0.4755,-0.4756,0,-0.4801,-0.4801,-0.4802,-0.4831,-0.4831,-0.4831,-0.4831,-0.4875,-0.4876,-0.4877,0,0,0,0,0,0,0,0,0,0,0,0,0,-0.4692,-0.4693,-0.4755,-0.4756,-0.4757,-0.48,-0.4801,-0.4802,-0.4831,-0.4831,-0.4831,-0.4831,-0.4874,-0.4876,-0.4877,0,0,0,0,0,0,0,0,0,0,0,0,0,-0.4726,-0.4693,-0.4755,-0.4776,-0.4779,-0.48,-0.4801,-0.4802,-0.4831,-0.4831,-0.4831,-0.4831,-0.4874,-0.4875,-0.4877,-0.488,0,0,-0.4881,-0.4882,0,0,0,0,0,0,0,0,-0.4724,-0.4729,-0.4773,-0.4775,-0.4778,-0.481,-0.4795,-0.4828,-0.4831,-0.4811,-0.4831,-0.4832,-0.4853,-0.4856,-0.4864,-0.4882,-0.4884,-0.4882,-0.4882,-0.4883,-0.4883,0,0,0,0,0,0,0,-0.4722,-0.4727,-0.4773,-0.4773,-0.4776,-0.4783,-0.4788,-0.4801,-0.483,-0.4813,-0.4815,-0.482,-0.4854,-0.4862,-0.4865,-0.4885,-0.4881,-0.4883,-0.4884,-0.4884,-0.4909,-0.4909,0,0,0,0,0,0,-0.4717,-0.4725,-0.4772,-0.4775,-0.4751,-0.4784,-0.4789,-0.4799,-0.483,-0.4834,-0.482,-0.4821,-0.486,-0.4863,-0.4867,-0.4873,-0.4883,-0.4884,-0.4885,-0.4909,-0.4909,-0.4909,0,0,0,0,0,0,-0.4715,-0.472,-0.477,-0.475,-0.4757,-0.4784,-0.4795,-0.48,-0.4808,-0.4835,-0.484,-0.4823,-0.486,-0.4865,-0.4877,-0.4875,-0.4885,-0.4886,-0.4909,-0.4909,-0.4909,-0.4886,0,0,0,0,0,0,-0.4713,-0.472,-0.4722,-0.475,-0.4758,-0.478,-0.4795,-0.4801,-0.4811,-0.4814,-0.4839,-0.4844,-0.4861,-0.4875,-0.4878,-0.4877,-0.4888,-0.491,-0.4909,-0.4909,-0.4887,-0.4885,-0.4883,0,0,0,0,0,-0.4711,-0.4713,-0.4722,-0.4727,-0.4761,-0.478,-0.4784,-0.4805,-0.4811,-0.4813,-0.483,-0.4843,-0.4875,-0.4876,-0.488,-0.4879,-0.491,-0.4909,-0.4909,-0.4888,-0.4885,-0.4883,0,0,0,0,0,0,-0.4683,-0.4717,-0.4727,-0.4739,-0.4757,-0.4785,-0.4788,-0.4801,-0.4816,-0.4818,-0.4841,-0.4847,-0.4857,-0.4869,-0.487,-0.4884,-0.4894,-0.4894,-0.4876,-0.4874,-0.4872,-0.4869,-0.4889,0,0,0,0,0,-0.4678,-0.4691,-0.472,-0.4728,-0.4736,-0.476,-0.4769,-0.4783,-0.4802,-0.4809,-0.4827,-0.4844,-0.4858,-0.4867,-0.4881,-0.4889,-0.4895,-0.489,-0.4888,-0.4887,-0.4887,-0.4892,-0.489,-0.4907,-0.4907,-0.4907,0,0,-0.4669,-0.4689,-0.4696,-0.4723,-0.4738,-0.475,-0.4767,-0.4779,-0.4788,-0.4811,-0.4824,-0.4838,-0.4858,-0.4868,-0.4874,-0.4879,-0.4883,-0.4886,-0.4884,-0.4885,-0.4891,-0.489,-0.4888,-0.4906,-0.4906,-0.4907,0,0,-0.4657,-0.4674,-0.4682,-0.4698,-0.4721,-0.4737,-0.4739,-0.4766,-0.4776,-0.479,-0.4807,-0.4818,-0.4841,-0.4855,-0.4865,-0.486,-0.4872,-0.4863,-0.4853,-0.4858,-0.4856,-0.4855,-0.4853,-0.4852,-0.4863,-0.4863,-0.4863,0,-0.4642,-0.4662,-0.4685,-0.4696,-0.4708,-0.473,-0.4738,-0.4751,-0.4777,-0.4784,-0.479,-0.482,-0.4835,-0.4849,-0.4848,-0.4855,-0.4858,-0.4861,-0.4855,-0.4854,-0.4854,-0.4852,-0.4851,-0.4862,-0.4862,-0.4862,-0.4862,0,-0.4643,-0.4656,-0.466,-0.4686,-0.4698,-0.4707,-0.473,-0.4739,-0.4752,-0.4768,-0.4781,-0.48,-0.4819,-0.4823,-0.4836,-0.4839,-0.4842,-0.4851,-0.4861,-0.485,-0.4849,-0.4849,-0.486,-0.4861,-0.4861,-0.4861,0,0,-0.4615,-0.4654,-0.4655,-0.4667,-0.4694,-0.4705,-0.4715,-0.4734,-0.4742,-0.4759,-0.4768,-0.4787,-0.4796,-0.4807,-0.4822,-0.4826,-0.482,-0.4835,-0.4835,-0.4831,-0.4825,-0.4818,-0.4817,-0.4828,-0.4828,-0.4828,-0.4823,0,-0.4608,-0.463,-0.465,-0.4664,-0.4676,-0.4698,-0.4707,-0.4724,-0.4739,-0.4751,-0.4767,-0.478,-0.4791,-0.4798,-0.4803,-0.482,-0.4819,-0.482,-0.4837,-0.4837,-0.4831,-0.4816,-0.4809,-0.4804,-0.4823,-0.4823,-0.4823,0,-0.4603,-0.4621,-0.4636,-0.4662,-0.4668,-0.4676,-0.4695,-0.4707,-0.4727,-0.4737,-0.475,-0.4765,-0.4777,-0.4785,-0.4801,-0.4801,-0.4809,-0.4818,-0.4818,-0.4821,-0.483,-0.4819,-0.4802,-0.4801,-0.4822,-0.4822,-0.4823,0,-0.4582,-0.4609,-0.4622,-0.4631,-0.4662,-0.4668,-0.468,-0.4701,-0.4711,-0.4727,-0.4734,-0.4751,-0.476,-0.4773,-0.4792,-0.4796,-0.4806,-0.4816,-0.4814,-0.4814,-0.4815,-0.4815,-0.48,-0.482,-0.482,-0.482,-0.482,0,-0.4573,-0.4581,-0.4613,-0.4621,-0.4631,-0.4653,-0.4662,-0.4677,-0.4695,-0.4705,-0.4724,-0.4733,-0.4758,-0.477,-0.4785,-0.4795,-0.4799,-0.4808,-0.4812,-0.4806,-0.4805,-0.4812,-0.4813,-0.482,-0.482,-0.482,-0.482,0,-0.4551,-0.4573,-0.4588,-0.4616,-0.4623,-0.4629,-0.4653,-0.4661,-0.4677,-0.469,-0.4694,-0.4719,-0.4734,-0.4754,-0.4775,-0.4785,-0.4794,-0.48,-0.4787,-0.479,-0.4787,-0.4787,-0.4776,-0.4776,-0.4796,-0.4795,-0.4795,0,-0.4544,-0.4551,-0.458,-0.4589,-0.4602,-0.4615,-0.4626,-0.4649,-0.4659,-0.4682,-0.4687,-0.4704,-0.4719,-0.4741,-0.476,-0.4776,-0.4783,-0.4778,-0.4786,-0.478,-0.4783,-0.4783,-0.4784,-0.4776,-0.4776,-0.4776,-0.4775,0,-0.4528,-0.4539,-0.4554,-0.4573,-0.4586,-0.4602,-0.4618,-0.4624,-0.465,-0.466,-0.4677,-0.4688,-0.471,-0.4726,-0.4745,-0.4757,-0.477,-0.4773,-0.4774,-0.4768,-0.4761,-0.4765,-0.4783,-0.4773,-0.4773,-0.4774,-0.4774,-0.4774,-0.4514,-0.4521,-0.4543,-0.456,-0.4575,-0.459,-0.4599,-0.4616,-0.463,-0.4651,-0.4663,-0.4678,-0.4698,-0.4724,-0.4736,-0.4748,-0.4753,-0.4754,-0.4754,-0.4754,-0.4752,-0.4759,-0.4751,-0.4751,-0.4752,-0.4752,-0.4752,0,-0.45,-0.4515,-0.453,-0.4553,-0.4566,-0.4578,-0.4597,-0.4607,-0.4621,-0.4638,-0.4652,-0.4671,-0.4686,-0.4707,-0.4724,-0.4729,-0.4736,-0.4733,-0.4733,-0.4736,-0.4747,-0.4745,-0.4728,-0.4728,-0.4728,-0.4728,-0.4728,-0.4728,-0.4494,-0.4507,-0.452,-0.4541,-0.4556,-0.4572,-0.4582,-0.4596,-0.461,-0.463,-0.4644,-0.4657,-0.4676,-0.4694,-0.4709,-0.4715,-0.472,-0.4715,-0.4723,-0.4733,-0.4735,-0.4737,-0.4735,-0.4716,-0.4716,-0.4711,-0.4711,-0.4711]},{"header":{"parameterUnit":"m.s-1","parameterCategory":1,"la1":30.2991,"la2":30.254,"lo1":-89.0895,"lo2":-89.0444,"dy":0.0017,"dx":0.0017,"nx":28,"ny":28,"refTime":"2024-07-19T09:00:00:Z","depth":0,"parameterNumber":3,"parameterNumberName":"V-component_of_WINDS"},"data":[0,0,0,0,0,0,0,0,0,0,0,0,0,0,0,0,0,0,0,0,0,0,0,0,0,0,0,0,0,0,0,0,0,0,0,0,0,0,0,0,0,0,0,0,0,0,0,0,0,0,0,0,0,0,0,0,0,0,3.2118,3.2119,0,3.2172,3.2173,3.2173,3.216,3.2159,3.2158,3.2157,3.2206,3.2208,3.221,0,0,0,0,0,0,0,0,0,0,0,0,0,3.1996,3.1999,3.2118,3.2119,3.2119,3.2172,3.2173,3.2173,3.216,3.2159,3.2158,3.2156,3.2205,3.2208,3.2211,0,0,0,0,0,0,0,0,0,0,0,0,0,3.2049,3.1999,3.2118,3.2119,3.212,3.2172,3.2173,3.2173,3.216,3.2159,3.2157,3.2156,3.2204,3.2208,3.2211,3.2263,0,0,3.2221,3.2223,0,0,0,0,0,0,0,0,3.2046,3.2054,3.2118,3.2119,3.212,3.2158,3.2148,3.2203,3.2161,3.2145,3.2157,3.2155,3.2191,3.2195,3.2208,3.2265,3.2267,3.2222,3.2224,3.2225,3.2226,0,0,0,0,0,0,0,3.2043,3.2051,3.2139,3.2119,3.212,3.2115,3.2121,3.2158,3.2175,3.2146,3.2145,3.2152,3.2191,3.2205,3.2209,3.2268,3.2221,3.2225,3.2227,3.2228,3.2367,3.2369,0,0,0,0,0,0,3.2039,3.2049,3.2137,3.2141,3.2079,3.2118,3.2125,3.2147,3.2175,3.2178,3.2153,3.2151,3.22,3.2206,3.2211,3.2272,3.2225,3.2228,3.223,3.2365,3.2367,3.2369,0,0,0,0,0,0,3.2037,3.2047,3.2135,3.2095,3.2105,3.2122,3.2147,3.2149,3.2163,3.2181,3.2183,3.2165,3.2199,3.2206,3.225,3.2274,3.223,3.2233,3.2363,3.2366,3.2368,3.2395,0,0,0,0,0,0,3.2033,3.2047,3.2068,3.2095,3.2108,3.2175,3.2149,3.2151,3.217,3.2168,3.2193,3.2195,3.2199,3.2245,3.2253,3.2278,3.2236,3.2361,3.2365,3.2368,3.2392,3.2399,3.2404,0,0,0,0,0,3.2029,3.2073,3.2069,3.208,3.2135,3.2177,3.2184,3.2188,3.2172,3.2193,3.2203,3.2194,3.227,3.225,3.2259,3.2284,3.236,3.2364,3.2367,3.239,3.2397,3.2404,0,0,0,0,0,0,3.2046,3.2076,3.2073,3.2127,3.215,3.2175,3.2201,3.2196,3.2222,3.2219,3.2222,3.2227,3.2271,3.2282,3.2259,3.2335,3.2312,3.2318,3.2326,3.2333,3.2339,3.2335,3.2238,0,0,0,0,0,3.2057,3.209,3.2114,3.2159,3.2171,3.2184,3.2202,3.2204,3.2226,3.2235,3.2249,3.227,3.2298,3.2316,3.2344,3.2394,3.2398,3.2416,3.2422,3.2426,3.2431,3.2457,3.2464,3.2382,3.2382,3.2381,0,0,3.2078,3.2098,3.2119,3.2163,3.2181,3.2213,3.2192,3.2227,3.225,3.224,3.2282,3.2293,3.2316,3.2363,3.2384,3.2373,3.2455,3.2431,3.2435,3.2437,3.2461,3.2469,3.2476,3.2384,3.2384,3.2383,0,0,3.2132,3.2152,3.2192,3.221,3.2238,3.2246,3.2255,3.2281,3.2288,3.2331,3.2324,3.235,3.2399,3.2416,3.243,3.249,3.2482,3.2499,3.2528,3.2553,3.2559,3.2565,3.2585,3.2592,3.2503,3.2503,3.2503,0,3.2154,3.2205,3.2212,3.2248,3.2266,3.226,3.2299,3.2315,3.2349,3.2361,3.2349,3.241,3.2425,3.2475,3.2489,3.2502,3.2511,3.2495,3.2558,3.2564,3.2569,3.2588,3.2596,3.2505,3.2505,3.2505,3.2505,0,3.223,3.2265,3.2292,3.2328,3.2349,3.2386,3.2396,3.2417,3.2416,3.2425,3.2468,3.2486,3.2515,3.2528,3.2527,3.2577,3.2569,3.2558,3.2535,3.2579,3.2596,3.2604,3.2508,3.2507,3.2507,3.2506,0,0,3.2296,3.2335,3.2345,3.236,3.239,3.2416,3.2451,3.2482,3.2499,3.2522,3.255,3.2592,3.2581,3.2598,3.2599,3.2621,3.2665,3.2607,3.2607,3.2616,3.2719,3.2727,3.2735,3.2661,3.2662,3.2663,3.2717,0,3.2352,3.2418,3.2424,3.2481,3.2512,3.2507,3.2537,3.2557,3.2566,3.2592,3.2601,3.263,3.2614,3.2624,3.2646,3.2656,3.2686,3.2652,3.2685,3.2686,3.2678,3.2744,3.2753,3.2802,3.2724,3.2725,3.2726,0,3.2427,3.2454,3.2515,3.2539,3.2552,3.258,3.2608,3.2634,3.2655,3.266,3.2679,3.2677,3.271,3.2687,3.2733,3.271,3.2723,3.273,3.2732,3.2734,3.2707,3.2747,3.2818,3.2825,3.2737,3.2736,3.2735,0,3.2467,3.2519,3.2562,3.2575,3.2605,3.2624,3.2637,3.2658,3.2676,3.2699,3.2711,3.2738,3.2752,3.2772,3.2776,3.2759,3.2821,3.2798,3.2824,3.2824,3.2836,3.2835,3.2909,3.2847,3.2847,3.2847,3.2847,0,3.2529,3.2565,3.258,3.2606,3.2646,3.2653,3.2692,3.2703,3.2721,3.2747,3.2744,3.2768,3.2773,3.2798,3.2801,3.2837,3.2844,3.2847,3.2847,3.2847,3.2846,3.2855,3.2851,3.2849,3.2849,3.2848,3.2848,0,3.258,3.2592,3.2638,3.2663,3.267,3.2698,3.2718,3.2742,3.275,3.2784,3.2791,3.2804,3.2833,3.284,3.2874,3.2876,3.2918,3.2916,3.2911,3.291,3.2935,3.2932,3.3016,3.3027,3.2959,3.296,3.296,0,3.2618,3.2646,3.2675,3.2693,3.2707,3.2737,3.2755,3.2762,3.278,3.2807,3.2827,3.2856,3.2879,3.2925,3.2935,3.2961,3.2958,3.2986,3.2962,3.296,3.2956,3.2954,3.2956,3.299,3.2991,3.2991,3.2992,0,3.2683,3.2687,3.2715,3.2745,3.2768,3.2791,3.2813,3.2827,3.2836,3.2857,3.2888,3.2906,3.2941,3.2968,3.2994,3.3005,3.2999,3.3,3.3006,3.3005,3.3001,3.3002,3.2922,3.2997,3.2997,3.2996,3.2996,3.2996,3.2728,3.2752,3.2776,3.2806,3.2824,3.2844,3.2868,3.288,3.2906,3.2936,3.2938,3.297,3.2989,3.3023,3.3035,3.3059,3.305,3.3061,3.3063,3.3065,3.3067,3.2999,3.3064,3.3064,3.3064,3.3064,3.3063,0,3.2791,3.2806,3.2835,3.2866,3.289,3.2885,3.2908,3.2927,3.2957,3.2976,3.2999,3.3033,3.306,3.3073,3.3099,3.3115,3.3113,3.3122,3.312,3.3122,3.3074,3.3065,3.3123,3.3123,3.3123,3.3123,3.3123,3.3123,3.2827,3.2868,3.2875,3.2923,3.2937,3.297,3.2984,3.3002,3.3017,3.3056,3.3079,3.3088,3.3104,3.3131,3.3154,3.3157,3.3166,3.3176,3.3177,3.3132,3.3126,3.312,3.3111,3.3178,3.3178,3.3223,3.3223,3.3224]}]]